Back to catalog

COSMOS 2401

AliveMilitaryPO
NORAD 27869·PAYLOAD·🇷🇺 Russia

Launched Aug 19, 2003 from Plesetsk Cosmodrome

Loading…

Next Passes (next 24 hours)

TLE

FreshSource: Space-Track

Epoch: Sep 14, 2026, 14:12 UTC

1 27869U 03037B   26257.59218115 -.00000065  00000-0 -52139-3 0  9995
2 27869  82.4641 270.1266 0021514 212.3496 147.6268 12.45504379 48908

Track COSMOS 2401 in real time with AllMySat

Download on the App Store